GLD1736 MDPP-MYNN

Flight info

Callsign GLD1736
Flight time N/A
Altitude 34000
Route MALVN Y396 RUMFO DCT ZQA136085 DCT BOSAR
Aircraft B738/M-SDE2E3FGHIRWXY/LB1

Departure

Time N/A
Airport Gregorio Luperon International Airport (MDPP)

Arrival

Time 2026-05-08 00:46
Airport Lynden Pindling International Airport (MYNN)
Time Latitude Longitude Altitude Speed Heading
2026-05-07 23:30 20.04970 -71.15303 21551 ft 414 kts 316°
2026-05-07 23:31 20.07127 -71.17329 21992 ft 413 kts 325°
2026-05-07 23:31 20.09517 -71.19032 22430 ft 414 kts 330°
2026-05-07 23:31 20.11996 -71.20581 22844 ft 415 kts 333°
2026-05-07 23:31 20.14507 -71.22102 23277 ft 416 kts 333°
2026-05-07 23:32 20.17013 -71.23644 23684 ft 418 kts 332°
2026-05-07 23:32 20.19538 -71.25224 24075 ft 419 kts 332°
2026-05-07 23:32 20.22050 -71.26808 24423 ft 422 kts 332°
2026-05-07 23:32 20.24582 -71.28410 24757 ft 424 kts 332°
2026-05-07 23:33 20.27112 -71.30016 25070 ft 427 kts 332°
2026-05-07 23:33 20.29681 -71.31645 25402 ft 429 kts 332°
2026-05-07 23:33 20.32221 -71.33261 25721 ft 431 kts 332°
2026-05-07 23:33 20.34827 -71.34918 26030 ft 433 kts 332°
2026-05-07 23:34 20.37419 -71.36567 26337 ft 435 kts 331°
2026-05-07 23:34 20.39908 -71.38382 26607 ft 440 kts 325°
2026-05-07 23:34 20.42235 -71.40550 26902 ft 444 kts 318°
2026-05-07 23:34 20.44346 -71.42982 27184 ft 448 kts 314°
2026-05-07 23:35 20.46347 -71.45529 27474 ft 450 kts 312°
2026-05-07 23:35 20.48294 -71.48136 27740 ft 452 kts 311°
2026-05-07 23:35 20.50263 -71.50790 27993 ft 455 kts 311°
2026-05-07 23:35 20.52229 -71.53440 28264 ft 456 kts 311°
2026-05-07 23:36 20.54184 -71.56075 28511 ft 458 kts 311°
2026-05-07 23:36 20.56141 -71.58714 28761 ft 459 kts 311°
2026-05-07 23:36 20.58092 -71.61344 29031 ft 460 kts 311°
2026-05-07 23:36 20.60113 -71.64071 29391 ft 459 kts 311°
2026-05-07 23:37 20.62091 -71.66740 29732 ft 458 kts 311°
2026-05-07 23:37 20.64071 -71.69399 30116 ft 457 kts 311°
2026-05-07 23:37 20.66052 -71.72053 30452 ft 456 kts 311°
2026-05-07 23:37 20.68016 -71.74689 30808 ft 455 kts 311°
2026-05-07 23:38 20.69965 -71.77310 31152 ft 455 kts 311°
2026-05-07 23:38 20.71918 -71.79940 31472 ft 455 kts 311°
2026-05-07 23:38 20.73924 -71.82643 31819 ft 454 kts 311°
2026-05-07 23:38 20.75679 -71.85012 32116 ft 454 kts 311°
2026-05-07 23:39 20.77659 -71.87686 32490 ft 453 kts 311°
2026-05-07 23:39 20.79618 -71.90332 32838 ft 452 kts 311°
2026-05-07 23:39 20.81573 -71.92975 33166 ft 452 kts 311°
2026-05-07 23:39 20.83518 -71.95603 33488 ft 452 kts 311°
2026-05-07 23:40 20.85469 -71.98244 33860 ft 450 kts 311°
2026-05-07 23:40 20.87410 -72.00871 33990 ft 453 kts 311°
2026-05-07 23:40 20.90713 -72.05345 34025 ft 453 kts 311°
2026-05-07 23:41 20.94596 -72.10611 34029 ft 448 kts 311°
2026-05-07 23:41 20.98428 -72.15812 34029 ft 448 kts 311°
2026-05-07 23:42 21.02275 -72.21039 34028 ft 448 kts 311°
2026-05-07 23:42 21.06132 -72.26282 34028 ft 447 kts 310°
2026-05-07 23:43 21.09977 -72.31516 34023 ft 447 kts 310°
2026-05-07 23:43 21.13822 -72.36754 34023 ft 447 kts 310°
2026-05-07 23:44 21.17655 -72.41980 34023 ft 446 kts 310°
2026-05-07 23:44 21.21493 -72.47218 34023 ft 446 kts 310°
2026-05-07 23:45 21.25318 -72.52444 34023 ft 445 kts 310°
2026-05-07 23:45 21.29142 -72.57673 34023 ft 446 kts 310°
2026-05-07 23:46 21.32957 -72.62894 34023 ft 445 kts 310°
2026-05-07 23:46 21.36774 -72.68124 34023 ft 445 kts 310°
2026-05-07 23:47 21.40594 -72.73361 34023 ft 445 kts 310°
2026-05-07 23:47 21.44401 -72.78587 34023 ft 445 kts 310°
2026-05-07 23:48 21.48191 -72.83794 34027 ft 444 kts 310°
2026-05-07 23:48 21.52003 -72.89037 34027 ft 445 kts 310°
2026-05-07 23:49 21.55806 -72.94270 34028 ft 444 kts 310°
2026-05-07 23:49 21.59603 -72.99502 34027 ft 444 kts 310°
2026-05-07 23:50 21.63406 -73.04747 34028 ft 444 kts 310°
2026-05-07 23:50 21.67199 -73.09983 34028 ft 444 kts 310°
2026-05-07 23:51 21.70984 -73.15213 34028 ft 444 kts 310°
2026-05-07 23:51 21.74770 -73.20449 34028 ft 443 kts 310°
2026-05-07 23:52 21.78553 -73.25686 34026 ft 443 kts 310°
2026-05-07 23:52 21.82336 -73.30930 34024 ft 443 kts 310°
2026-05-07 23:53 21.86110 -73.36165 34025 ft 443 kts 310°
2026-05-07 23:53 21.89887 -73.41408 34025 ft 442 kts 310°
2026-05-07 23:54 21.93652 -73.46640 34026 ft 442 kts 310°
2026-05-07 23:54 21.97386 -73.51835 34026 ft 441 kts 310°
2026-05-07 23:55 22.01141 -73.57064 34025 ft 441 kts 310°
2026-05-07 23:55 22.04890 -73.62289 34025 ft 440 kts 310°
2026-05-07 23:56 22.08175 -73.66872 34025 ft 441 kts 310°
2026-05-07 23:56 22.11924 -73.72108 34026 ft 440 kts 310°
2026-05-07 23:57 22.15672 -73.77346 34030 ft 441 kts 310°
2026-05-07 23:57 22.19418 -73.82587 34030 ft 440 kts 310°
2026-05-07 23:58 22.22939 -73.87519 34031 ft 440 kts 309°
2026-05-07 23:58 22.26678 -73.92760 34032 ft 440 kts 309°
2026-05-07 23:59 22.29781 -73.97113 34032 ft 440 kts 309°
2026-05-07 23:59 22.33435 -74.02244 34032 ft 440 kts 309°
2026-05-08 00:00 22.36956 -74.07194 34033 ft 440 kts 309°
2026-05-08 00:00 22.40689 -74.12446 34033 ft 440 kts 309°
2026-05-08 00:01 22.44416 -74.17694 34027 ft 440 kts 309°
2026-05-08 00:01 22.48132 -74.22933 34021 ft 440 kts 309°
2026-05-08 00:02 22.51850 -74.28181 34026 ft 439 kts 309°
2026-05-08 00:02 22.55570 -74.33435 34031 ft 439 kts 309°
2026-05-08 00:03 22.58667 -74.37814 34032 ft 439 kts 309°
2026-05-08 00:03 22.62229 -74.42855 34032 ft 439 kts 309°
2026-05-08 00:04 22.65953 -74.48130 34032 ft 439 kts 309°
2026-05-08 00:04 22.69647 -74.53368 34033 ft 438 kts 309°
2026-05-08 00:05 22.73368 -74.58650 34033 ft 439 kts 309°
2026-05-08 00:05 22.77066 -74.63904 34034 ft 439 kts 309°
2026-05-08 00:06 22.80742 -74.69133 34034 ft 439 kts 309°
2026-05-08 00:06 22.84438 -74.74395 34035 ft 438 kts 309°
2026-05-08 00:07 22.88131 -74.79658 34035 ft 438 kts 309°
2026-05-08 00:07 22.91859 -74.84952 34036 ft 438 kts 309°
2026-05-08 00:08 22.95523 -74.90181 34035 ft 438 kts 308°
2026-05-08 00:08 22.99203 -74.95451 34037 ft 438 kts 308°
2026-05-08 00:09 23.02876 -75.00717 34038 ft 438 kts 308°
2026-05-08 00:09 23.06556 -75.05995 34038 ft 438 kts 308°
2026-05-08 00:10 23.10499 -75.10989 34040 ft 436 kts 316°
2026-05-08 00:10 23.14889 -75.15569 34040 ft 436 kts 317°
2026-05-08 00:11 23.19282 -75.20115 34041 ft 436 kts 317°
2026-05-08 00:11 23.23666 -75.24662 34041 ft 436 kts 317°
2026-05-08 00:12 23.28068 -75.29235 34042 ft 438 kts 316°
2026-05-08 00:12 23.32483 -75.33828 34047 ft 439 kts 316°
2026-05-08 00:13 23.36902 -75.38402 34048 ft 438 kts 317°
2026-05-08 00:13 23.41314 -75.42977 34048 ft 437 kts 316°
2026-05-08 00:14 23.45725 -75.47565 34049 ft 438 kts 316°
2026-05-08 00:14 23.50092 -75.52115 34050 ft 437 kts 316°
2026-05-08 00:15 23.54495 -75.56708 34050 ft 437 kts 316°
2026-05-08 00:15 23.58883 -75.61290 34052 ft 436 kts 316°
2026-05-08 00:16 23.63263 -75.65869 34048 ft 436 kts 316°
2026-05-08 00:16 23.67643 -75.70452 34048 ft 436 kts 316°
2026-05-08 00:17 23.72027 -75.75044 34049 ft 436 kts 316°
2026-05-08 00:17 23.76400 -75.79629 34050 ft 435 kts 316°
2026-05-08 00:18 23.80771 -75.84217 34050 ft 435 kts 316°
2026-05-08 00:18 23.85134 -75.88801 34049 ft 436 kts 316°
2026-05-08 00:19 23.89497 -75.93389 34050 ft 435 kts 316°
2026-05-08 00:19 23.93867 -75.97978 34051 ft 435 kts 316°
2026-05-08 00:20 23.98227 -76.02561 34052 ft 435 kts 316°
2026-05-08 00:20 24.02590 -76.07168 34053 ft 435 kts 316°
2026-05-08 00:21 24.06945 -76.11773 33881 ft 437 kts 316°
2026-05-08 00:21 24.09126 -76.14082 33397 ft 433 kts 316°
2026-05-08 00:21 24.11297 -76.16379 32612 ft 435 kts 316°
2026-05-08 00:22 24.13472 -76.18681 32024 ft 432 kts 316°
2026-05-08 00:22 24.15589 -76.20934 31484 ft 429 kts 315°
2026-05-08 00:22 24.17626 -76.23359 30941 ft 426 kts 311°
2026-05-08 00:22 24.19521 -76.25839 30412 ft 423 kts 310°
2026-05-08 00:23 24.21363 -76.28352 29890 ft 420 kts 309°
2026-05-08 00:23 24.23164 -76.30799 29390 ft 417 kts 309°
2026-05-08 00:23 24.24987 -76.33256 28885 ft 414 kts 310°
2026-05-08 00:23 24.26803 -76.35692 28381 ft 411 kts 310°
2026-05-08 00:24 24.28629 -76.38136 27874 ft 408 kts 310°
2026-05-08 00:24 24.30402 -76.40505 27381 ft 405 kts 310°
2026-05-08 00:24 24.32183 -76.42883 26881 ft 402 kts 310°
2026-05-08 00:24 24.33931 -76.45217 26391 ft 399 kts 310°
2026-05-08 00:25 24.35707 -76.47587 25891 ft 396 kts 310°
2026-05-08 00:25 24.37451 -76.49915 25397 ft 394 kts 310°
2026-05-08 00:25 24.39183 -76.52208 24909 ft 391 kts 310°
2026-05-08 00:25 24.40912 -76.54502 24420 ft 388 kts 310°
2026-05-08 00:26 24.42628 -76.56786 23930 ft 385 kts 310°
2026-05-08 00:26 24.44322 -76.59028 23447 ft 383 kts 310°
2026-05-08 00:26 24.46022 -76.61287 22959 ft 380 kts 310°
2026-05-08 00:26 24.47696 -76.63520 22475 ft 378 kts 310°
2026-05-08 00:27 24.49356 -76.65740 21992 ft 375 kts 310°
2026-05-08 00:27 24.50998 -76.67940 21513 ft 373 kts 310°
2026-05-08 00:27 24.52638 -76.70138 21034 ft 370 kts 310°
2026-05-08 00:27 24.54266 -76.72321 20555 ft 368 kts 310°
2026-05-08 00:28 24.55887 -76.74498 20080 ft 366 kts 310°
2026-05-08 00:28 24.57492 -76.76652 19612 ft 363 kts 310°
2026-05-08 00:28 24.59089 -76.78797 19145 ft 361 kts 310°
2026-05-08 00:28 24.60678 -76.80930 18679 ft 359 kts 311°
2026-05-08 00:29 24.62254 -76.83046 18221 ft 357 kts 311°
2026-05-08 00:29 24.63804 -76.85166 17765 ft 355 kts 309°
2026-05-08 00:29 24.65220 -76.87384 17313 ft 354 kts 305°
2026-05-08 00:29 24.66540 -76.89648 16866 ft 352 kts 304°
2026-05-08 00:30 24.67815 -76.91933 16419 ft 350 kts 303°
2026-05-08 00:30 24.69004 -76.94062 16004 ft 348 kts 303°
2026-05-08 00:30 24.70278 -76.96322 15562 ft 346 kts 303°
2026-05-08 00:30 24.71566 -76.98593 15119 ft 344 kts 303°
2026-05-08 00:31 24.72835 -77.00820 14683 ft 343 kts 303°
2026-05-08 00:31 24.74099 -77.03036 14249 ft 341 kts 303°
2026-05-08 00:31 24.75355 -77.05234 13819 ft 339 kts 303°
2026-05-08 00:31 24.76607 -77.07423 13390 ft 338 kts 303°
2026-05-08 00:32 24.77859 -77.09611 12961 ft 336 kts 303°
2026-05-08 00:32 24.79086 -77.11755 12531 ft 335 kts 303°
2026-05-08 00:32 24.80325 -77.13919 12084 ft 334 kts 303°
2026-05-08 00:32 24.81562 -77.16081 11638 ft 333 kts 303°
2026-05-08 00:33 24.82799 -77.18223 11205 ft 332 kts 303°
2026-05-08 00:33 24.84039 -77.20368 10776 ft 330 kts 303°
2026-05-08 00:33 24.85268 -77.22501 10389 ft 328 kts 302°
2026-05-08 00:33 24.85795 -77.23417 10320 ft 324 kts 302°
2026-05-08 00:34 24.86147 -77.24029 10292 ft 320 kts 302°
2026-05-08 00:34 24.87313 -77.26061 10226 ft 308 kts 302°
2026-05-08 00:34 24.88409 -77.27973 10162 ft 297 kts 302°
2026-05-08 00:34 24.89465 -77.29815 10090 ft 287 kts 302°
2026-05-08 00:35 24.90536 -77.31688 9867 ft 282 kts 302°
2026-05-08 00:35 24.91587 -77.33525 9554 ft 280 kts 302°
2026-05-08 00:35 24.92625 -77.35342 9215 ft 280 kts 302°
2026-05-08 00:35 24.93660 -77.37153 8877 ft 280 kts 302°
2026-05-08 00:36 24.94700 -77.38961 8548 ft 280 kts 302°
2026-05-08 00:36 24.95742 -77.40772 8218 ft 279 kts 302°
2026-05-08 00:36 24.96776 -77.42576 7894 ft 278 kts 301°
2026-05-08 00:36 24.97808 -77.44383 7570 ft 277 kts 301°
2026-05-08 00:37 24.98838 -77.46189 7242 ft 276 kts 302°
2026-05-08 00:37 24.99855 -77.47976 6917 ft 275 kts 301°
2026-05-08 00:37 25.00465 -77.49048 6722 ft 274 kts 301°
2026-05-08 00:38 25.02563 -77.52740 6037 ft 267 kts 301°
2026-05-08 00:38 25.03522 -77.54429 5723 ft 254 kts 301°
2026-05-08 00:38 25.04455 -77.56074 5423 ft 253 kts 301°
2026-05-08 00:38 25.05387 -77.57717 5117 ft 253 kts 301°
2026-05-08 00:39 25.06321 -77.59364 4799 ft 252 kts 301°
2026-05-08 00:39 25.07253 -77.61007 4477 ft 252 kts 301°
2026-05-08 00:39 25.08183 -77.62646 4150 ft 252 kts 301°
2026-05-08 00:39 25.09114 -77.64286 3825 ft 252 kts 301°
2026-05-08 00:40 25.10040 -77.65914 3506 ft 251 kts 302°
2026-05-08 00:40 25.10746 -77.66916 3283 ft 251 kts 316°
2026-05-08 00:40 25.12859 -77.67806 2797 ft 252 kts
2026-05-08 00:40 25.14489 -77.67276 2680 ft 235 kts 27°
2026-05-08 00:41 25.15765 -77.66287 2528 ft 215 kts 42°
2026-05-08 00:41 25.16436 -77.65506 2446 ft 200 kts 49°
2026-05-08 00:41 25.17561 -77.64078 2191 ft 176 kts 65°
2026-05-08 00:41 25.17682 -77.63192 2044 ft 174 kts 95°
2026-05-08 00:42 25.17331 -77.61955 2019 ft 170 kts 115°
2026-05-08 00:42 25.16691 -77.60837 2030 ft 172 kts 126°
2026-05-08 00:42 25.15948 -77.59793 2037 ft 174 kts 129°
2026-05-08 00:42 25.15169 -77.58769 1992 ft 176 kts 131°
2026-05-08 00:43 25.14329 -77.57768 1941 ft 175 kts 134°
2026-05-08 00:43 25.13497 -77.56820 1896 ft 174 kts 134°
2026-05-08 00:43 25.12643 -77.55861 1829 ft 175 kts 134°
2026-05-08 00:43 25.11781 -77.54899 1804 ft 173 kts 135°
2026-05-08 00:44 25.10938 -77.53961 1632 ft 175 kts 135°
2026-05-08 00:44 25.10092 -77.53020 1390 ft 174 kts 134°
2026-05-08 00:44 25.09233 -77.52065 1149 ft 173 kts 134°
2026-05-08 00:44 25.08392 -77.51130 913 ft 172 kts 134°
2026-05-08 00:45 25.07544 -77.50191 689 ft 171 kts 134°
2026-05-08 00:45 25.06669 -77.49224 532 ft 181 kts 134°
2026-05-08 00:45 25.05794 -77.48260 221 ft 177 kts 134°
2026-05-08 00:45 25.04962 -77.47318 37 ft 164 kts 133°
2026-05-08 00:46 25.04269 -77.46537 25 ft 115 kts 133°
2026-05-08 00:46 25.03857 -77.46081 24 ft 53 kts 135°
2026-05-08 00:46 25.03704 -77.45914 24 ft 20 kts 136°
2026-05-08 00:46 25.03621 -77.45808 24 ft 16 kts 102°
2026-05-08 00:47 25.03620 -77.45690 24 ft 15 kts 87°
2026-05-08 00:47 25.03684 -77.45647 24 ft 7 kts 329°
2026-05-08 00:47 25.03687 -77.45650 24 ft 0 kts 327°
2026-05-08 00:48 25.03688 -77.45650 24 ft 0 kts 327°
2026-05-08 00:48 25.03710 -77.45668 24 ft 8 kts 319°
2026-05-08 00:48 25.03750 -77.45709 24 ft 8 kts 317°
2026-05-08 00:48 25.03782 -77.45744 24 ft 7 kts 315°
2026-05-08 00:49 25.03816 -77.45788 24 ft 7 kts 315°
2026-05-08 00:49 25.03850 -77.45825 24 ft 7 kts 315°
2026-05-08 00:49 25.03884 -77.45861 24 ft 7 kts 315°
2026-05-08 00:49 25.03916 -77.45896 24 ft 6 kts 315°
2026-05-08 00:50 25.03948 -77.45931 24 ft 6 kts 315°
2026-05-08 00:50 25.03978 -77.45965 24 ft 6 kts 315°
2026-05-08 00:50 25.04008 -77.45997 24 ft 6 kts 315°
2026-05-08 00:50 25.04037 -77.46029 24 ft 6 kts 315°
2026-05-08 00:51 25.04077 -77.46073 24 ft 11 kts 315°
2026-05-08 00:51 25.04128 -77.46129 24 ft 10 kts 315°
2026-05-08 00:51 25.04176 -77.46182 24 ft 10 kts 315°
2026-05-08 00:51 25.04223 -77.46235 24 ft 9 kts 314°
2026-05-08 00:52 25.04267 -77.46285 24 ft 9 kts 314°
2026-05-08 00:52 25.04309 -77.46332 24 ft 9 kts 314°
2026-05-08 00:52 25.04349 -77.46376 24 ft 8 kts 314°
2026-05-08 00:52 25.04388 -77.46420 24 ft 8 kts 315°
2026-05-08 00:53 25.04425 -77.46461 24 ft 7 kts 314°
2026-05-08 00:53 25.04460 -77.46500 24 ft 7 kts 314°
2026-05-08 00:53 25.04495 -77.46539 24 ft 7 kts 314°
2026-05-08 00:53 25.04528 -77.46575 24 ft 7 kts 316°
2026-05-08 00:54 25.04560 -77.46611 24 ft 6 kts 314°
2026-05-08 00:54 25.04591 -77.46645 24 ft 6 kts 314°
2026-05-08 00:54 25.04627 -77.46685 24 ft 9 kts 314°
2026-05-08 00:54 25.04672 -77.46729 24 ft 8 kts 332°
2026-05-08 00:55 25.04725 -77.46728 24 ft 8 kts 35°
2026-05-08 00:55 25.04765 -77.46687 24 ft 8 kts 45°
2026-05-08 00:55 25.04801 -77.46652 24 ft 6 kts 19°
2026-05-08 00:55 25.04820 -77.46651 24 ft 1 kts 350°
2026-05-08 00:56 25.04828 -77.46653 24 ft 1 kts 345°
2026-05-08 00:56 25.04834 -77.46656 24 ft 1 kts 327°
2026-05-08 00:56 25.04839 -77.46660 24 ft 1 kts 325°
2026-05-08 00:56 25.04845 -77.46664 24 ft 1 kts 325°
2026-05-08 00:57 25.04850 -77.46668 24 ft 1 kts 325°
2026-05-08 00:57 25.04855 -77.46672 24 ft 1 kts 325°
2026-05-08 00:57 25.04857 -77.46674 24 ft 0 kts 325°